| time (UTC) | temp F | wind direction | speed MPH | gust MPH | rain 1hr in | rain 24hr in | rain mn in | humidity % | barometer mb |
| 20260901134327 | 58 | 86 | 0.0 | 0.0 | 0.00 | 0.00 | 0.00 | 80 | 1009.5 |
| 20260901133826 | 58 | 84 | 0.0 | 0.0 | 0.00 | 0.00 | 0.00 | 80 | 1009.5 |
| 20260901133329 | 57 | 70 | 0.0 | 0.0 | 0.00 | 0.00 | 0.00 | 80 | 1009.5 |
| 20260901133059 | 57 | 83 | 0.0 | 0.0 | 0.00 | 0.00 | 0.00 | 81 | 1008.4 |
| 20260901132832 | 57 | 85 | 0.0 | 0.0 | 0.00 | 0.00 | 0.00 | 80 | 1009.5 |
| 20260901132358 | 58 | 74 | 0.0 | 0.0 | 0.00 | 0.00 | 0.00 | 80 | 1009.5 |
| 20260901131823 | 58 | 67 | 0.0 | 0.0 | 0.00 | 0.00 | 0.00 | 80 | 1009.4 |
| 20260901131612 | 57 | 66 | 0.0 | 0.0 | 0.00 | 0.00 | 0.00 | 80 | 1008.5 |
| 20260901131323 | 58 | 84 | 0.0 | 0.0 | 0.00 | 0.00 | 0.00 | 79 | 1009.6 |
| 20260901130830 | 58 | 110 | 0.0 | 0.0 | 0.00 | 0.00 | 0.00 | 80 | 1009.5 |
| 20260901130337 | 58 | 60 | 0.0 | 0.0 | 0.00 | 0.00 | 0.00 | 79 | 1009.5 |
| 20260901130054 | 58 | 54 | 0.0 | 0.0 | 0.00 | 0.00 | 0.00 | 79 | 1008.4 |
| 20260901125830 | 59 | 74 | 0.0 | 0.0 | 0.00 | 0.00 | 0.00 | 78 | 1009.4 |
| 20260901125325 | 58 | 86 | 0.0 | 0.0 | 0.00 | 0.00 | 0.00 | 79 | 1009.4 |
| 20260901124827 | 58 | 77 | 0.0 | 0.0 | 0.00 | 0.00 | 0.00 | 79 | 1009.3 |
| 20260901124613 | 58 | 100 | 0.0 | 0.0 | 0.00 | 0.00 | 0.00 | 79 | 1008.4 |
| 20260901124342 | 59 | 100 | 0.0 | 0.0 | 0.00 | 0.00 | 0.00 | 79 | 1009.4 |
| 20260901123821 | 59 | 99 | 0.0 | 0.0 | 0.00 | 0.00 | 0.00 | 80 | 1009.3 |
| 20260901123333 | 58 | 92 | 0.0 | 0.0 | 0.00 | 0.00 | 0.00 | 80 | 1009.3 |
| 20260901123100 | 58 | 101 | 0.0 | 0.0 | 0.00 | 0.00 | 0.00 | 81 | 1008.2 |
| 20260901122827 | 59 | 81 | 0.0 | 0.0 | 0.00 | 0.00 | 0.00 | 80 | 1009.2 |
| 20260901122318 | 59 | 97 | 0.0 | 0.0 | 0.00 | 0.00 | 0.00 | 80 | 1009.2 |
| 20260901121837 | 59 | 94 | 0.0 | 0.0 | 0.00 | 0.00 | 0.00 | 80 | 1009.2 |
| 20260901121608 | 59 | 68 | 0.0 | 0.0 | 0.00 | 0.00 | 0.00 | 80 | 1008.2 |
| 20260901121321 | 59 | 85 | 0.0 | 0.0 | 0.00 | 0.00 | 0.00 | 77 | 1009.2 |
| 20260901120828 | 59 | 107 | 0.0 | 0.0 | 0.00 | 0.00 | 0.00 | 78 | 1009.2 |
| 20260901120325 | 59 | 65 | 0.0 | 0.0 | 0.00 | 0.00 | 0.00 | 78 | 1009.2 |
| 20260901115819 | 59 | 83 | 0.0 | 0.0 | 0.00 | 0.00 | 0.00 | 78 | 1009.2 |
| 20260901115329 | 59 | 98 | 0.0 | 0.0 | 0.00 | 0.00 | 0.00 | 78 | 1009.2 |
| 20260901114844 | 59 | 97 | 0.0 | 0.0 | 0.00 | 0.00 | 0.00 | 77 | 1009.2 |
| 20260901114602 | 59 | 97 | 0.0 | 0.0 | 0.00 | 0.00 | 0.00 | 77 | 1008.2 |
| 20260901114317 | 59 | 99 | 0.0 | 0.0 | 0.00 | 0.00 | 0.00 | 77 | 1009.2 |
| 20260901113821 | 59 | 79 | 0.0 | 0.0 | 0.00 | 0.00 | 0.00 | 77 | 1009.2 |
| 20260901113322 | 59 | 65 | 0.0 | 0.0 | 0.00 | 0.00 | 0.00 | 77 | 1009.3 |
| 20260901113115 | 59 | 65 | 0.0 | 0.0 | 0.00 | 0.00 | 0.00 | 77 | 1008.2 |
| 20260901112838 | 60 | 65 | 0.0 | 0.0 | 0.00 | 0.00 | 0.00 | 77 | 1009.2 |
| 20260901112328 | 60 | 63 | 0.0 | 0.0 | 0.00 | 0.00 | 0.00 | 77 | 1009.2 |
| 20260901111838 | 60 | 79 | 0.0 | 0.0 | 0.00 | 0.00 | 0.00 | 76 | 1009.2 |
| 20260901111556 | 60 | 54 | 0.0 | 0.0 | 0.00 | 0.00 | 0.00 | 76 | 1008.3 |
| 20260901111331 | 60 | 83 | 0.0 | 0.0 | 0.00 | 0.00 | 0.00 | 76 | 1009.2 |
| 20260901110855 | 60 | 86 | 0.0 | 0.0 | 0.00 | 0.00 | 0.00 | 77 | 1009.2 |
| 20260901110335 | 60 | 84 | 0.0 | 0.0 | 0.00 | 0.00 | 0.00 | 77 | 1009.2 |
| 20260901110117 | 59 | 80 | 0.0 | 0.0 | 0.00 | 0.00 | 0.00 | 77 | 1008.2 |
| 20260901105821 | 60 | 79 | 0.0 | 0.0 | 0.00 | 0.00 | 0.00 | 77 | 1009.2 |
| 20260901105331 | 60 | 81 | 0.0 | 0.0 | 0.00 | 0.00 | 0.00 | 77 | 1009.2 |
| 20260901104831 | 60 | 81 | 0.0 | 0.0 | 0.00 | 0.00 | 0.00 | 76 | 1009.2 |
| 20260901104604 | 60 | 81 | 0.0 | 0.0 | 0.00 | 0.00 | 0.00 | 76 | 1008.2 |
| 20260901104342 | 60 | 79 | 0.0 | 0.0 | 0.00 | 0.00 | 0.00 | 76 | 1009.1 |
| 20260901103838 | 61 | 66 | 0.0 | 0.0 | 0.00 | 0.00 | 0.00 | 76 | 1009.0 |
| 20260901103323 | 61 | 80 | 0.0 | 0.0 | 0.00 | 0.00 | 0.00 | 76 | 1009.1 |
| 20260901103111 | 60 | 92 | 0.0 | 0.0 | 0.00 | 0.00 | 0.00 | 76 | 1008.1 |
| 20260901102832 | 61 | 98 | 0.0 | 0.0 | 0.00 | 0.00 | 0.00 | 77 | 1009.2 |
| 20260901102316 | 60 | 105 | 0.0 | 0.0 | 0.00 | 0.00 | 0.00 | 77 | 1009.2 |
| 20260901101823 | 60 | 95 | 0.0 | 0.0 | 0.00 | 0.00 | 0.00 | 78 | 1009.2 |
| 20260901101601 | 60 | 85 | 0.0 | 0.0 | 0.00 | 0.00 | 0.00 | 78 | 1008.1 |
| 20260901101354 | 60 | 81 | 0.0 | 0.0 | 0.00 | 0.00 | 0.00 | 78 | 1009.1 |
| 20260901100827 | 60 | 98 | 0.0 | 0.0 | 0.00 | 0.00 | 0.00 | 78 | 1009.1 |
| 20260901100345 | 60 | 101 | 0.0 | 0.0 | 0.00 | 0.00 | 0.00 | 78 | 1009.2 |
| 20260901100008 | 60 | 72 | 0.0 | 0.0 | 0.00 | 0.00 | 0.00 | 78 | 1008.2 |
| 20260901095829 | 61 | 69 | 0.0 | 2.0 | 0.00 | 0.00 | 0.00 | 77 | 1009.2 |
| 20260901095328 | 61 | 65 | 0.0 | 2.0 | 0.00 | 0.00 | 0.00 | 77 | 1009.2 |
| 20260901094819 | 61 | 43 | 0.0 | 0.0 | 0.00 | 0.00 | 0.00 | 76 | 1009.2 |
| 20260901094324 | 61 | 56 | 0.0 | 0.0 | 0.00 | 0.00 | 0.00 | 76 | 1009.2 |
| 20260901093817 | 61 | 68 | 0.0 | 0.0 | 0.00 | 0.00 | 0.00 | 75 | 1009.2 |
| 20260901093330 | 61 | 86 | 0.0 | 0.0 | 0.00 | 0.00 | 0.00 | 76 | 1009.2 |
| 20260901093006 | 60 | 71 | 0.0 | 0.0 | 0.00 | 0.00 | 0.00 | 77 | 1008.2 |
| 20260901092830 | 61 | 81 | 0.0 | 0.0 | 0.00 | 0.00 | 0.00 | 77 | 1009.2 |
| 20260901092322 | 61 | 82 | 0.0 | 0.0 | 0.00 | 0.00 | 0.00 | 77 | 1009.3 |
| 20260901091832 | 61 | 83 | 0.0 | 0.0 | 0.00 | 0.00 | 0.00 | 77 | 1009.3 |
| 20260901091515 | 61 | 42 | 0.0 | 0.0 | 0.00 | 0.00 | 0.00 | 78 | 1008.3 |
| 20260901091337 | 61 | 40 | 0.0 | 0.0 | 0.00 | 0.00 | 0.00 | 78 | 1009.3 |
| 20260901090827 | 61 | 56 | 0.0 | 0.0 | 0.00 | 0.00 | 0.00 | 76 | 1009.2 |
| 20260901090326 | 62 | 68 | 0.0 | 0.0 | 0.00 | 0.00 | 0.00 | 76 | 1009.2 |
| 20260901090104 | 61 | 76 | 0.0 | 0.0 | 0.00 | 0.00 | 0.00 | 75 | 1008.2 |
| 20260901085822 | 62 | 76 | 0.0 | 0.0 | 0.00 | 0.00 | 0.00 | 75 | 1009.3 |
| 20260901085336 | 62 | 80 | 0.0 | 0.0 | 0.00 | 0.00 | 0.00 | 75 | 1009.3 |
| 20260901084821 | 62 | 81 | 0.0 | 0.0 | 0.00 | 0.00 | 0.00 | 75 | 1009.4 |
| 20260901084602 | 62 | 75 | 0.0 | 0.0 | 0.00 | 0.00 | 0.00 | 75 | 1008.4 |
| 20260901084334 | 62 | 88 | 0.0 | 0.0 | 0.00 | 0.00 | 0.00 | 76 | 1009.5 |
| 20260901083323 | 62 | 91 | 0.0 | 0.0 | 0.00 | 0.00 | 0.00 | 75 | 1009.4 |
| 20260901083119 | 62 | 95 | 0.0 | 0.0 | 0.00 | 0.00 | 0.00 | 75 | 1008.4 |
| 20260901082822 | 62 | 94 | 0.0 | 0.0 | 0.00 | 0.00 | 0.00 | 75 | 1009.4 |
| 20260901082319 | 62 | 62 | 0.0 | 0.0 | 0.00 | 0.00 | 0.00 | 75 | 1009.4 |
| 20260901081825 | 62 | 68 | 0.0 | 0.0 | 0.00 | 0.00 | 0.00 | 75 | 1009.3 |
| 20260901081526 | 62 | 68 | 0.0 | 0.0 | 0.00 | 0.00 | 0.00 | 75 | 1008.2 |
| 20260901081340 | 62 | 68 | 0.0 | 0.0 | 0.00 | 0.00 | 0.00 | 75 | 1009.3 |
| 20260901080829 | 62 | 84 | 0.0 | 0.0 | 0.00 | 0.00 | 0.00 | 75 | 1009.3 |
| 20260901080325 | 62 | 85 | 0.0 | 0.0 | 0.00 | 0.00 | 0.00 | 75 | 1009.4 |
| 20260901080100 | 62 | 95 | 0.0 | 0.0 | 0.00 | 0.00 | 0.00 | 75 | 1008.4 |
| 20260901075833 | 62 | 96 | 0.0 | 0.0 | 0.00 | 0.00 | 0.00 | 76 | 1009.5 |
| 20260901075331 | 62 | 87 | 0.0 | 0.0 | 0.00 | 0.00 | 0.00 | 78 | 1009.4 |
| 20260901074831 | 62 | 86 | 0.0 | 0.0 | 0.00 | 0.00 | 0.00 | 78 | 1009.5 |
| 20260901074641 | 62 | 77 | 0.0 | 0.0 | 0.00 | 0.00 | 0.00 | 78 | 1008.4 |
| 20260901074330 | 63 | 79 | 0.0 | 0.0 | 0.00 | 0.00 | 0.00 | 79 | 1009.4 |
| 20260901073911 | 62 | 84 | 0.0 | 0.0 | 0.00 | 0.00 | 0.00 | 78 | 1009.4 |
| 20260901073344 | 62 | 94 | 0.0 | 0.0 | 0.00 | 0.00 | 0.00 | 75 | 1009.4 |
| 20260901072822 | 62 | 93 | 0.0 | 0.0 | 0.00 | 0.00 | 0.00 | 75 | 1009.4 |
| 20260901072349 | 62 | 101 | 0.0 | 0.0 | 0.00 | 0.00 | 0.00 | 75 | 1009.3 |
| 20260901071823 | 62 | 90 | 0.0 | 0.0 | 0.00 | 0.00 | 0.00 | 75 | 1009.3 |
| 20260901071604 | 62 | 90 | 0.0 | 0.0 | 0.00 | 0.00 | 0.00 | 76 | 1008.3 |
| 20260901071333 | 63 | 92 | 0.0 | 0.0 | 0.00 | 0.00 | 0.00 | 75 | 1009.4 |
| 20260901070822 | 63 | 91 | 0.0 | 0.0 | 0.00 | 0.00 | 0.00 | 74 | 1009.3 |
| 20260901070345 | 63 | 89 | 0.0 | 0.0 | 0.00 | 0.00 | 0.00 | 74 | 1009.4 |
| 20260901070103 | 62 | 89 | 0.0 | 0.0 | 0.00 | 0.00 | 0.00 | 74 | 1008.4 |
| 20260901065828 | 63 | 89 | 0.0 | 0.0 | 0.00 | 0.00 | 0.00 | 74 | 1009.3 |
| 20260901065317 | 63 | 91 | 0.0 | 0.0 | 0.00 | 0.00 | 0.00 | 74 | 1009.3 |
| 20260901064838 | 63 | 91 | 0.0 | 0.0 | 0.00 | 0.00 | 0.00 | 73 | 1009.2 |
| 20260901064556 | 63 | 91 | 0.0 | 0.0 | 0.00 | 0.00 | 0.00 | 73 | 1008.3 |
| 20260901064316 | 63 | 91 | 0.0 | 0.0 | 0.00 | 0.00 | 0.00 | 73 | 1009.3 |
| 20260901063829 | 64 | 90 | 0.0 | 0.0 | 0.00 | 0.00 | 0.00 | 73 | 1009.3 |
| 20260901063318 | 64 | 88 | 0.0 | 0.0 | 0.00 | 0.00 | 0.00 | 73 | 1009.4 |
| 20260901063105 | 63 | 90 | 0.0 | 0.0 | 0.00 | 0.00 | 0.00 | 73 | 1008.4 |
| 20260901062819 | 64 | 95 | 0.0 | 0.0 | 0.00 | 0.00 | 0.00 | 72 | 1009.3 |
| 20260901062323 | 64 | 95 | 0.0 | 0.0 | 0.00 | 0.00 | 0.00 | 72 | 1009.3 |
| 20260901061822 | 64 | 95 | 0.0 | 0.0 | 0.00 | 0.00 | 0.00 | 72 | 1009.2 |
| 20260901061607 | 64 | 95 | 0.0 | 0.0 | 0.00 | 0.00 | 0.00 | 72 | 1008.3 |
| 20260901061359 | 64 | 96 | 0.0 | 0.0 | 0.00 | 0.00 | 0.00 | 72 | 1009.2 |
| 20260901060850 | 64 | 94 | 0.0 | 0.0 | 0.00 | 0.00 | 0.00 | 74 | 1009.2 |
| 20260901060332 | 64 | 108 | 0.0 | 0.0 | 0.00 | 0.00 | 0.00 | 73 | 1009.3 |
| 20260901060017 | 64 | 108 | 0.0 | 0.0 | 0.00 | 0.00 | 0.00 | 73 | 1008.4 |
| 20260901055839 | 64 | 107 | 0.0 | 0.0 | 0.00 | 0.00 | 0.00 | 73 | 1009.3 |
| 20260901055341 | 64 | 110 | 0.0 | 0.0 | 0.00 | 0.00 | 0.00 | 72 | 1009.3 |
| 20260901054825 | 64 | 106 | 0.0 | 0.0 | 0.00 | 0.00 | 0.00 | 72 | 1009.4 |
| 20260901054604 | 64 | 112 | 0.0 | 0.0 | 0.00 | 0.00 | 0.00 | 72 | 1008.5 |
| 20260901054321 | 64 | 112 | 0.0 | 0.0 | 0.00 | 0.00 | 0.00 | 72 | 1009.4 |
| 20260901053820 | 64 | 111 | 0.0 | 0.0 | 0.00 | 0.00 | 0.00 | 72 | 1009.4 |
| 20260901053318 | 64 | 103 | 0.0 | 0.0 | 0.00 | 0.00 | 0.00 | 72 | 1009.4 |
| 20260901053107 | 64 | 101 | 0.0 | 0.0 | 0.00 | 0.00 | 0.00 | 73 | 1008.5 |
| 20260901052852 | 65 | 105 | 0.0 | 0.0 | 0.00 | 0.00 | 0.00 | 72 | 1009.4 |
| 20260901052348 | 65 | 103 | 0.0 | 0.0 | 0.00 | 0.00 | 0.00 | 72 | 1009.4 |
| 20260901051837 | 65 | 101 | 0.0 | 0.0 | 0.00 | 0.00 | 0.00 | 71 | 1009.4 |
| 20260901051607 | 65 | 101 | 0.0 | 0.0 | 0.00 | 0.00 | 0.00 | 72 | 1008.4 |
| 20260901051319 | 65 | 103 | 0.0 | 0.0 | 0.00 | 0.00 | 0.00 | 72 | 1009.4 |
| 20260901050821 | 65 | 103 | 0.0 | 0.0 | 0.00 | 0.00 | 0.00 | 71 | 1009.3 |
| 20260901050344 | 65 | 101 | 0.0 | 0.0 | 0.00 | 0.00 | 0.00 | 71 | 1009.4 |
| 20260901050053 | 65 | 103 | 0.0 | 0.0 | 0.00 | 0.00 | 0.00 | 72 | 1008.4 |
| 20260901045833 | 65 | 66 | 0.0 | 0.0 | 0.00 | 0.00 | 0.00 | 72 | 1009.4 |
| 20260901045340 | 65 | 131 | 0.0 | 0.0 | 0.00 | 0.00 | 0.00 | 70 | 1009.4 |
| 20260901044834 | 66 | 132 | 0.0 | 0.0 | 0.00 | 0.00 | 0.00 | 70 | 1009.4 |
| 20260901044602 | 65 | 132 | 0.0 | 0.0 | 0.00 | 0.00 | 0.00 | 70 | 1008.4 |
| 20260901044323 | 66 | 100 | 0.0 | 0.0 | 0.00 | 0.00 | 0.00 | 70 | 1009.4 |
| 20260901043835 | 66 | 100 | 0.0 | 0.0 | 0.00 | 0.00 | 0.00 | 72 | 1009.4 |
| 20260901043328 | 66 | 100 | 0.0 | 0.0 | 0.00 | 0.00 | 0.00 | 73 | 1009.4 |
| 20260901043108 | 66 | 101 | 0.0 | 0.0 | 0.00 | 0.00 | 0.00 | 72 | 1008.5 |
| 20260901042818 | 66 | 101 | 0.0 | 0.0 | 0.00 | 0.00 | 0.00 | 71 | 1009.4 |
| 20260901042321 | 66 | 101 | 0.0 | 0.0 | 0.00 | 0.00 | 0.00 | 69 | 1009.4 |
| 20260901041505 | 66 | 102 | 0.0 | 0.0 | 0.00 | 0.00 | 0.00 | 70 | 1008.4 |
| 20260901041330 | 67 | 100 | 0.0 | 0.0 | 0.00 | 0.00 | 0.00 | 71 | 1009.4 |
| 20260901040830 | 68 | 101 | 0.0 | 0.0 | 0.00 | 0.00 | 0.00 | 69 | 1009.4 |
| 20260901040326 | 68 | 129 | 0.0 | 0.0 | 0.00 | 0.00 | 0.00 | 68 | 1009.3 |
| 20260901040115 | 67 | 127 | 0.0 | 0.0 | 0.00 | 0.00 | 0.00 | 68 | 1008.4 |
| 20260901035819 | 67 | 74 | 0.0 | 0.0 | 0.00 | 0.00 | 0.00 | 67 | 1009.4 |
| 20260901035325 | 67 | 73 | 0.0 | 0.0 | 0.00 | 0.00 | 0.00 | 66 | 1009.4 |
| 20260901034835 | 67 | 74 | 0.0 | 0.0 | 0.00 | 0.00 | 0.00 | 65 | 1009.4 |
| 20260901034520 | 67 | 73 | 0.0 | 0.0 | 0.00 | 0.00 | 0.00 | 64 | 1008.4 |
| 20260901034335 | 68 | 78 | 0.0 | 0.0 | 0.00 | 0.00 | 0.00 | 65 | 1009.4 |
| 20260901033837 | 68 | 56 | 0.0 | 0.0 | 0.00 | 0.00 | 0.00 | 64 | 1009.4 |
| 20260901033324 | 69 | 203 | 0.0 | 0.0 | 0.00 | 0.00 | 0.00 | 60 | 1009.3 |
| 20260901033101 | 68 | 204 | 0.0 | 0.0 | 0.00 | 0.00 | 0.00 | 60 | 1008.3 |
| 20260901032833 | 69 | 204 | 0.0 | 0.0 | 0.00 | 0.00 | 0.00 | 60 | 1009.2 |
| 20260901032356 | 69 | 100 | 0.0 | 0.0 | 0.00 | 0.00 | 0.00 | 61 | 1009.2 |
| 20260901031823 | 69 | 98 | 0.0 | 0.0 | 0.00 | 0.00 | 0.00 | 60 | 1009.1 |
| 20260901031607 | 69 | 98 | 0.0 | 0.0 | 0.00 | 0.00 | 0.00 | 60 | 1008.1 |
| 20260901031321 | 69 | 100 | 0.0 | 0.0 | 0.00 | 0.00 | 0.00 | 60 | 1009.0 |
| 20260901030839 | 69 | 101 | 0.0 | 0.0 | 0.00 | 0.00 | 0.00 | 60 | 1009.0 |
| 20260901030333 | 70 | 86 | 0.0 | 0.0 | 0.00 | 0.00 | 0.00 | 61 | 1009.0 |
| 20260901030112 | 69 | 86 | 0.0 | 0.0 | 0.00 | 0.00 | 0.00 | 61 | 1008.1 |
| 20260901025819 | 70 | 85 | 0.0 | 0.0 | 0.00 | 0.00 | 0.00 | 60 | 1009.0 |
| 20260901025327 | 71 | 111 | 0.0 | 0.0 | 0.00 | 0.00 | 0.00 | 60 | 1008.9 |
| 20260901024830 | 71 | 111 | 0.0 | 0.0 | 0.00 | 0.00 | 0.00 | 59 | 1009.0 |
| 20260901024558 | 71 | 113 | 0.0 | 0.0 | 0.00 | 0.00 | 0.00 | 58 | 1008.1 |
| 20260901024358 | 72 | 113 | 0.0 | 0.0 | 0.00 | 0.00 | 0.00 | 58 | 1009.1 |
| 20260901023849 | 72 | 175 | 0.0 | 0.0 | 0.00 | 0.00 | 0.00 | 57 | 1009.1 |
| 20260901023319 | 73 | 124 | 0.0 | 0.0 | 0.00 | 0.00 | 0.00 | 56 | 1009.1 |
| 20260901023111 | 72 | 124 | 0.0 | 0.0 | 0.00 | 0.00 | 0.00 | 57 | 1008.1 |
| 20260901022823 | 73 | 117 | 0.0 | 0.0 | 0.00 | 0.00 | 0.00 | 56 | 1009.1 |
| 20260901022331 | 73 | 191 | 0.0 | 0.0 | 0.00 | 0.00 | 0.00 | 59 | 1009.1 |
| 20260901021827 | 74 | 257 | 0.0 | 0.0 | 0.00 | 0.00 | 0.00 | 63 | 1009.1 |
| 20260901021508 | 74 | 78 | 0.0 | 0.0 | 0.00 | 0.00 | 0.00 | 58 | 1008.2 |
| 20260901021332 | 74 | 77 | 0.0 | 0.0 | 0.00 | 0.00 | 0.00 | 58 | 1009.1 |
| 20260901020837 | 74 | 78 | 0.0 | 0.0 | 0.00 | 0.00 | 0.00 | 56 | 1009.2 |
| 20260901020341 | 74 | 114 | 0.0 | 0.0 | 0.00 | 0.00 | 0.00 | 56 | 1009.1 |
| 20260901020116 | 74 | 84 | 0.0 | 0.0 | 0.00 | 0.00 | 0.00 | 55 | 1008.2 |
| 20260901015842 | 74 | 83 | 0.0 | 0.0 | 0.00 | 0.00 | 0.00 | 55 | 1009.2 |
| 20260901015316 | 74 | 83 | 0.0 | 0.0 | 0.00 | 0.00 | 0.00 | 53 | 1009.2 |
| 20260901014834 | 74 | 85 | 0.0 | 0.0 | 0.00 | 0.00 | 0.00 | 54 | 1009.3 |
| 20260901014559 | 74 | 84 | 0.0 | 0.0 | 0.00 | 0.00 | 0.00 | 55 | 1008.3 |
| 20260901014331 | 74 | 16 | 0.0 | 0.0 | 0.00 | 0.00 | 0.00 | 56 | 1009.3 |
| 20260901013836 | 75 | 15 | 0.0 | 0.0 | 0.00 | 0.00 | 0.00 | 60 | 1009.3 |
| 20260901013323 | 75 | 302 | 0.0 | 0.0 | 0.00 | 0.00 | 0.00 | 60 | 1009.4 |
| 20260901013134 | 75 | 302 | 0.0 | 0.0 | 0.00 | 0.00 | 0.00 | 59 | 1008.4 |
| 20260901012845 | 75 | 302 | 0.0 | 0.0 | 0.00 | 0.00 | 0.00 | 63 | 1009.4 |
| 20260901012339 | 74 | 283 | 0.0 | 0.0 | 0.00 | 0.00 | 0.00 | 62 | 1009.5 |
| 20260901011831 | 74 | 281 | 0.0 | 0.0 | 0.00 | 0.00 | 0.00 | 58 | 1009.5 |
| 20260901011607 | 74 | 280 | 0.0 | 0.0 | 0.00 | 0.00 | 0.00 | 64 | 1008.5 |
| 20260901011323 | 74 | 253 | 0.0 | 0.0 | 0.00 | 0.00 | 0.00 | 59 | 1009.6 |
| 20260901010817 | 74 | 232 | 0.0 | 0.0 | 0.00 | 0.00 | 0.00 | 57 | 1009.6 |
| 20260901010325 | 74 | 231 | 0.0 | 0.0 | 0.00 | 0.00 | 0.00 | 60 | 1009.6 |
| 20260901010125 | 73 | 241 | 0.0 | 0.0 | 0.00 | 0.00 | 0.00 | 62 | 1008.7 |
| 20260901005856 | 74 | 250 | 0.0 | 0.0 | 0.00 | 0.00 | 0.00 | 64 | 1009.6 |
| 20260901005318 | 74 | 251 | 0.0 | 1.0 | 0.00 | 0.00 | 0.00 | 60 | 1009.6 |
| 20260901004833 | 74 | 241 | 0.0 | 3.0 | 0.00 | 0.00 | 0.00 | 61 | 1009.6 |
| 20260901004512 | 73 | 215 | 0.0 | 3.0 | 0.00 | 0.00 | 0.00 | 64 | 1008.8 |
| 20260901004337 | 74 | 245 | 0.0 | 0.0 | 0.00 | 0.00 | 0.00 | 61 | 1009.7 |
| 20260901003858 | 74 | 242 | 0.0 | 0.0 | 0.00 | 0.00 | 0.00 | 62 | 1009.8 |
| 20260901003345 | 74 | 242 | 0.0 | 0.0 | 0.00 | 0.00 | 0.00 | 58 | 1009.8 |
| 20260901003110 | 73 | 241 | 0.0 | 0.0 | 0.00 | 0.00 | 0.00 | 57 | 1008.9 |
| 20260901002823 | 74 | 229 | 0.0 | 0.0 | 0.00 | 0.00 | 0.00 | 57 | 1009.9 |
| 20260901002329 | 73 | 219 | 0.0 | 0.0 | 0.00 | 0.00 | 0.00 | 64 | 1010.0 |
| 20260901001841 | 73 | 239 | 0.0 | 0.0 | 0.00 | 0.00 | 0.00 | 66 | 1010.0 |
| 20260901001604 | 72 | 253 | 0.0 | 0.0 | 0.00 | 0.00 | 0.00 | 66 | 1009.1 |
| 20260901001350 | 73 | 255 | 0.0 | 0.0 | 0.00 | 0.00 | 0.00 | 66 | 1010.1 |
| 20260901000823 | 73 | 246 | 0.0 | 0.0 | 0.00 | 0.00 | 0.00 | 68 | 1010.1 |
| 20260901000337 | 73 | 249 | 0.0 | 0.0 | 0.00 | 0.00 | 0.00 | 67 | 1010.2 |
| 20260901000056 | 72 | 250 | 0.0 | 0.0 | 0.00 | 0.00 | 0.00 | 66 | 1009.3 |
| 20260831235817 | 73 | 261 | 0.0 | 0.0 | 0.00 | 0.00 | 0.00 | 67 | 1010.3 |
| 20260831235319 | 73 | 249 | 0.0 | 0.0 | 0.00 | 0.00 | 0.00 | 63 | 1010.3 |
| 20260831234819 | 73 | 242 | 0.0 | 0.0 | 0.00 | 0.00 | 0.00 | 61 | 1010.3 |
| 20260831234557 | 73 | 242 | 0.0 | 0.0 | 0.00 | 0.00 | 0.00 | 59 | 1009.4 |
| 20260831234318 | 73 | 249 | 0.0 | 0.0 | 0.00 | 0.00 | 0.00 | 57 | 1010.3 |
| 20260831233828 | 73 | 251 | 0.0 | 4.0 | 0.00 | 0.00 | 0.00 | 58 | 1010.4 |
| 20260831233321 | 73 | 222 | 0.0 | 4.0 | 0.00 | 0.00 | 0.00 | 59 | 1010.5 |
| 20260831233105 | 72 | 241 | 0.0 | 4.0 | 0.00 | 0.00 | 0.00 | 60 | 1009.6 |
| 20260831232816 | 73 | 225 | 0.0 | 2.0 | 0.00 | 0.00 | 0.00 | 59 | 1010.5 |
| 20260831232318 | 73 | 225 | 0.0 | 3.0 | 0.00 | 0.00 | 0.00 | 61 | 1010.6 |
| 20260831231817 | 73 | 232 | 0.0 | 4.0 | 0.00 | 0.00 | 0.00 | 59 | 1010.6 |
| 20260831231604 | 72 | 247 | 0.0 | 5.0 | 0.00 | 0.00 | 0.00 | 57 | 1009.8 |
| 20260831231332 | 73 | 228 | 1.0 | 5.0 | 0.00 | 0.00 | 0.00 | 58 | 1010.7 |
| 20260831230829 | 73 | 217 | 2.0 | 5.0 | 0.00 | 0.00 | 0.00 | 56 | 1010.8 |
| 20260831230338 | 73 | 264 | 0.0 | 1.0 | 0.00 | 0.00 | 0.00 | 58 | 1010.8 |
| 20260831230055 | 72 | 229 | 0.0 | 4.0 | 0.00 | 0.00 | 0.00 | 57 | 1010.0 |
| 20260831225826 | 72 | 224 | 0.0 | 4.0 | 0.00 | 0.00 | 0.00 | 57 | 1010.9 |
| 20260831225340 | 72 | 226 | 1.0 | 5.0 | 0.00 | 0.00 | 0.00 | 59 | 1011.0 |
| 20260831224818 | 72 | 246 | 1.0 | 5.0 | 0.00 | 0.00 | 0.00 | 60 | 1011.1 |
| 20260831224607 | 72 | 225 | 1.0 | 5.0 | 0.00 | 0.00 | 0.00 | 60 | 1010.2 |
| 20260831224330 | 72 | 228 | 1.0 | 4.0 | 0.00 | 0.00 | 0.00 | 61 | 1011.1 |
| 20260831223858 | 72 | 217 | 1.0 | 4.0 | 0.00 | 0.00 | 0.00 | 59 | 1011.2 |
| 20260831223342 | 72 | 239 | 0.0 | 4.0 | 0.00 | 0.00 | 0.00 | 61 | 1011.3 |
| 20260831223056 | 71 | 239 | 0.0 | 4.0 | 0.00 | 0.00 | 0.00 | 63 | 1010.4 |
| 20260831222833 | 72 | 218 | 1.0 | 4.0 | 0.00 | 0.00 | 0.00 | 59 | 1011.4 |
| 20260831222327 | 71 | 235 | 0.0 | 4.0 | 0.00 | 0.00 | 0.00 | 61 | 1011.5 |
| 20260831221821 | 71 | 240 | 0.0 | 4.0 | 0.00 | 0.00 | 0.00 | 63 | 1011.4 |
| 20260831221619 | 70 | 246 | 1.0 | 4.0 | 0.00 | 0.00 | 0.00 | 64 | 1010.6 |
| 20260831221317 | 71 | 228 | 1.0 | 4.0 | 0.00 | 0.00 | 0.00 | 66 | 1011.5 |
| 20260831220821 | 71 | 228 | 0.0 | 1.0 | 0.00 | 0.00 | 0.00 | 64 | 1011.6 |
| 20260831220340 | 70 | 236 | 0.0 | 1.0 | 0.00 | 0.00 | 0.00 | 65 | 1011.7 |
| 20260831220011 | 70 | 248 | 0.0 | 0.0 | 0.00 | 0.00 | 0.00 | 64 | 1010.9 |
| 20260831215833 | 70 | 236 | 0.0 | 4.0 | 0.00 | 0.00 | 0.00 | 63 | 1011.8 |
| 20260831215331 | 70 | 232 | 0.0 | 4.0 | 0.00 | 0.00 | 0.00 | 64 | 1011.9 |
| 20260831214819 | 70 | 224 | 1.0 | 6.0 | 0.00 | 0.00 | 0.00 | 67 | 1012.0 |
| 20260831214552 | 69 | 245 | 0.0 | 6.0 | 0.00 | 0.00 | 0.00 | 66 | 1011.1 |
| 20260831214353 | 70 | 225 | 3.0 | 6.0 | 0.00 | 0.00 | 0.00 | 65 | 1012.1 |
| 20260831213817 | 69 | 239 | 0.0 | 5.0 | 0.00 | 0.00 | 0.00 | 67 | 1012.1 |
| 20260831213320 | 70 | 245 | 1.0 | 6.0 | 0.00 | 0.00 | 0.00 | 66 | 1012.2 |
| 20260831212844 | 69 | 239 | 4.0 | 6.0 | 0.00 | 0.00 | 0.00 | 64 | 1012.3 |
| 20260831212320 | 69 | 249 | 4.0 | 6.0 | 0.00 | 0.00 | 0.00 | 65 | 1012.4 |
| 20260831211824 | 69 | 241 | 3.0 | 5.0 | 0.00 | 0.00 | 0.00 | 65 | 1012.5 |
| 20260831211602 | 69 | 247 | 0.0 | 4.0 | 0.00 | 0.00 | 0.00 | 66 | 1011.7 |
| 20260831211350 | 69 | 249 | 0.0 | 4.0 | 0.00 | 0.00 | 0.00 | 66 | 1012.5 |
| 20260831210817 | 69 | 250 | 0.0 | 0.0 | 0.00 | 0.00 | 0.00 | 66 | 1012.6 |
| 20260831210327 | 69 | 246 | 0.0 | 0.0 | 0.00 | 0.00 | 0.00 | 63 | 1012.7 |
| 20260831210059 | 68 | 246 | 0.0 | 0.0 | 0.00 | 0.00 | 0.00 | 64 | 1011.9 |
| 20260831205839 | 69 | 250 | 0.0 | 0.0 | 0.00 | 0.00 | 0.00 | 67 | 1012.8 |
| 20260831205337 | 69 | 253 | 0.0 | 4.0 | 0.00 | 0.00 | 0.00 | 65 | 1012.8 |
| 20260831204817 | 69 | 225 | 0.0 | 5.0 | 0.00 | 0.00 | 0.00 | 64 | 1012.9 |
| 20260831204604 | 68 | 210 | 0.0 | 5.0 | 0.00 | 0.00 | 0.00 | 65 | 1012.1 |
| 20260831204328 | 68 | 210 | 1.0 | 5.0 | 0.00 | 0.00 | 0.00 | 68 | 1013.0 |
| 20260831203833 | 68 | 226 | 1.0 | 6.0 | 0.00 | 0.00 | 0.00 | 66 | 1013.1 |
| 20260831203338 | 68 | 226 | 5.0 | 6.0 | 0.00 | 0.00 | 0.00 | 67 | 1013.2 |
| 20260831203137 | 67 | 249 | 4.0 | 5.0 | 0.00 | 0.00 | 0.00 | 66 | 1012.4 |
| 20260831202839 | 68 | 250 | 0.0 | 6.0 | 0.00 | 0.00 | 0.00 | 67 | 1013.2 |
| 20260831202327 | 68 | 224 | 2.0 | 6.0 | 0.00 | 0.00 | 0.00 | 66 | 1013.3 |
| 20260831201822 | 68 | 231 | 2.0 | 7.0 | 0.00 | 0.00 | 0.00 | 68 | 1013.4 |
| 20260831201603 | 67 | 246 | 3.0 | 7.0 | 0.00 | 0.00 | 0.00 | 67 | 1012.6 |
| 20260831201324 | 68 | 221 | 5.0 | 8.0 | 0.00 | 0.00 | 0.00 | 68 | 1013.4 |
| 20260831200819 | 68 | 243 | 1.0 | 4.0 | 0.00 | 0.00 | 0.00 | 66 | 1013.5 |
| 20260831200318 | 68 | 231 | 0.0 | 0.0 | 0.00 | 0.00 | 0.00 | 66 | 1013.6 |
| 20260831200141 | 67 | 240 | 0.0 | 0.0 | 0.00 | 0.00 | 0.00 | 65 | 1012.9 |
| 20260831195821 | 68 | 222 | 0.0 | 0.0 | 0.00 | 0.04 | 0.00 | 65 | 1013.6 |
| 20260831195326 | 68 | 242 | 0.0 | 0.0 | 0.00 | 0.04 | 0.00 | 66 | 1013.7 |
| 20260831194834 | 67 | 248 | 0.0 | 0.0 | 0.00 | 0.04 | 0.00 | 66 | 1013.8 |
| 20260831194617 | 67 | 264 | 0.0 | 0.0 | 0.00 | 0.01 | 0.00 | 66 | 1013.0 |
| 20260831194323 | 67 | 246 | 0.0 | 0.0 | 0.00 | 0.04 | 0.00 | 66 | 1013.8 |
| 20260831193817 | 67 | 266 | 0.0 | 0.0 | 0.00 | 0.04 | 0.00 | 66 | 1013.9 |
| 20260831193339 | 67 | 257 | 0.0 | 0.0 | 0.00 | 0.04 | 0.00 | 65 | 1014.1 |
| 20260831193107 | 66 | 283 | 0.0 | 0.0 | 0.00 | 0.01 | 0.00 | 65 | 1013.3 |
| 20260831192825 | 67 | 267 | 0.0 | 0.0 | 0.00 | 0.04 | 0.00 | 66 | 1014.1 |
| 20260831192323 | 67 | 280 | 0.0 | 0.0 | 0.00 | 0.04 | 0.00 | 64 | 1014.3 |
| 20260831191821 | 67 | 255 | 0.0 | 0.0 | 0.00 | 0.04 | 0.00 | 65 | 1014.5 |
| 20260831191339 | 66 | 257 | 0.0 | 0.0 | 0.00 | 0.04 | 0.00 | 65 | 1014.5 |
| 20260831190822 | 66 | 264 | 0.0 | 0.0 | 0.00 | 0.04 | 0.00 | 64 | 1014.6 |
| 20260831190350 | 66 | 257 | 0.0 | 0.0 | 0.00 | 0.04 | 0.00 | 63 | 1014.7 |
| 20260831190055 | 66 | 250 | 0.0 | 0.0 | 0.00 | 0.01 | 0.00 | 65 | 1013.9 |
| 20260831185857 | 66 | 229 | 0.0 | 0.0 | 0.00 | 0.04 | 0.00 | 64 | 1014.7 |
| 20260831185327 | 66 | 249 | 0.0 | 0.0 | 0.00 | 0.04 | 0.00 | 64 | 1014.8 |
| 20260831184834 | 66 | 239 | 0.0 | 0.0 | 0.00 | 0.04 | 0.00 | 67 | 1014.9 |
| 20260831184603 | 65 | 246 | 0.0 | 0.0 | 0.00 | 0.01 | 0.00 | 68 | 1014.1 |
| 20260831184319 | 66 | 246 | 0.0 | 0.0 | 0.00 | 0.04 | 0.00 | 66 | 1015.0 |
| 20260831183828 | 66 | 271 | 0.0 | 0.0 | 0.00 | 0.04 | 0.00 | 66 | 1015.1 |
| 20260831183323 | 66 | 255 | 0.0 | 0.0 | 0.00 | 0.04 | 0.00 | 67 | 1015.1 |
| 20260831183101 | 65 | 255 | 0.0 | 0.0 | 0.00 | 0.01 | 0.00 | 66 | 1014.4 |
| 20260831182823 | 65 | 255 | 0.0 | 0.0 | 0.00 | 0.04 | 0.00 | 67 | 1015.3 |
| 20260831182330 | 65 | 261 | 0.0 | 0.0 | 0.00 | 0.04 | 0.00 | 67 | 1015.3 |
| 20260831181822 | 65 | 255 | 0.0 | 0.0 | 0.00 | 0.04 | 0.00 | 68 | 1015.4 |
| 20260831181605 | 64 | 261 | 0.0 | 0.0 | 0.00 | 0.01 | 0.00 | 67 | 1014.7 |
| 20260831181339 | 65 | 280 | 0.0 | 0.0 | 0.00 | 0.04 | 0.00 | 68 | 1015.5 |
| 20260831180833 | 65 | 250 | 0.0 | 0.0 | 0.00 | 0.04 | 0.00 | 66 | 1015.5 |
| 20260831180329 | 65 | 259 | 0.0 | 0.0 | 0.00 | 0.04 | 0.00 | 66 | 1015.6 |
| 20260831180113 | 65 | 250 | 0.0 | 0.0 | 0.00 | 0.01 | 0.00 | 66 | 1014.9 |
| 20260831175823 | 65 | 219 | 0.0 | 0.0 | 0.00 | 0.04 | 0.00 | 68 | 1015.6 |
| 20260831175322 | 64 | 229 | 0.0 | 0.0 | 0.00 | 0.04 | 0.00 | 68 | 1015.6 |
| 20260831174830 | 64 | 276 | 0.0 | 0.0 | 0.00 | 0.04 | 0.00 | 70 | 1015.7 |
| 20260831174557 | 63 | 328 | 0.0 | 0.0 | 0.00 | 0.01 | 0.00 | 70 | 1015.0 |
| 20260831174335 | 64 | 32 | 0.0 | 0.0 | 0.00 | 0.04 | 0.00 | 70 | 1015.8 |
| 20260831173837 | 63 | 21 | 0.0 | 0.0 | 0.00 | 0.04 | 0.00 | 72 | 1015.8 |
| 20260831173329 | 63 | 346 | 0.0 | 0.0 | 0.00 | 0.04 | 0.00 | 72 | 1015.8 |
| 20260831173022 | 63 | 21 | 0.0 | 0.0 | 0.00 | 0.01 | 0.00 | 71 | 1015.2 |
| 20260831172847 | 63 | 33 | 0.0 | 0.0 | 0.00 | 0.04 | 0.00 | 72 | 1015.9 |
| 20260831172331 | 63 | 29 | 0.0 | 0.0 | 0.00 | 0.04 | 0.00 | 72 | 1016.0 |
| 20260831171834 | 63 | 359 | 0.0 | 0.0 | 0.00 | 0.04 | 0.00 | 72 | 1016.0 |
| 20260831171558 | 62 | 352 | 0.0 | 0.0 | 0.00 | 0.01 | 0.00 | 73 | 1015.2 |
| 20260831171359 | 63 | 23 | 0.0 | 0.0 | 0.00 | 0.04 | 0.00 | 73 | 1016.0 |
| 20260831170823 | 62 | 26 | 0.0 | 0.0 | 0.00 | 0.04 | 0.00 | 73 | 1016.1 |
| 20260831170317 | 62 | 295 | 0.0 | 0.0 | 0.00 | 0.04 | 0.00 | 73 | 1016.1 |
| 20260831170113 | 62 | 6 | 0.0 | 0.0 | 0.00 | 0.01 | 0.00 | 75 | 1015.4 |
| 20260831165819 | 62 | 333 | 0.0 | 0.0 | 0.00 | 0.04 | 0.00 | 74 | 1016.1 |
| 20260831165347 | 62 | 323 | 0.0 | 0.0 | 0.00 | 0.04 | 0.00 | 77 | 1016.2 |
| 20260831164821 | 61 | 34 | 0.0 | 0.0 | 0.00 | 0.04 | 0.00 | 78 | 1016.3 |
| 20260831164607 | 61 | 36 | 0.0 | 0.0 | 0.00 | 0.01 | 0.00 | 78 | 1015.5 |
| 20260831164327 | 61 | 25 | 0.0 | 0.0 | 0.00 | 0.04 | 0.00 | 79 | 1016.3 |
| 20260831163839 | 61 | 41 | 0.0 | 0.0 | 0.00 | 0.04 | 0.00 | 80 | 1016.4 |
| 20260831163337 | 60 | 27 | 0.0 | 0.0 | 0.00 | 0.04 | 0.00 | 82 | 1016.5 |
| 20260831163016 | 59 | 29 | 0.0 | 0.0 | 0.00 | 0.01 | 0.00 | 81 | 1015.8 |
| 20260831162836 | 60 | 340 | 0.0 | 0.0 | 0.00 | 0.04 | 0.00 | 81 | 1016.5 |
| 20260831162340 | 60 | 20 | 0.0 | 0.0 | 0.00 | 0.04 | 0.00 | 81 | 1016.5 |
| 20260831161848 | 59 | 21 | 0.0 | 0.0 | 0.00 | 0.04 | 0.00 | 84 | 1016.5 |
| 20260831161511 | 59 | 31 | 0.0 | 0.0 | 0.00 | 0.01 | 0.00 | 84 | 1015.8 |
| 20260831161334 | 59 | 32 | 0.0 | 0.0 | 0.00 | 0.04 | 0.00 | 84 | 1016.6 |
| 20260831160820 | 59 | 29 | 0.0 | 0.0 | 0.00 | 0.04 | 0.00 | 84 | 1016.7 |
| 20260831160322 | 58 | 27 | 0.0 | 0.0 | 0.00 | 0.04 | 0.00 | 85 | 1016.7 |
| 20260831160101 | 58 | 66 | 0.0 | 0.0 | 0.00 | 0.01 | 0.00 | 85 | 1016.0 |
| 20260831155839 | 58 | 81 | 0.0 | 0.0 | 0.00 | 0.04 | 0.00 | 85 | 1016.8 |
| 20260831155354 | 58 | 49 | 0.0 | 0.0 | 0.00 | 0.04 | 0.00 | 85 | 1016.8 |
| 20260831154831 | 58 | 87 | 0.0 | 0.0 | 0.00 | 0.04 | 0.00 | 85 | 1016.7 |
| 20260831154503 | 57 | 77 | 0.0 | 0.0 | 0.00 | 0.01 | 0.00 | 85 | 1016.1 |
| 20260831154322 | 58 | 70 | 0.0 | 0.0 | 0.00 | 0.04 | 0.00 | 85 | 1016.7 |
| 20260831153827 | 58 | 56 | 0.0 | 0.0 | 0.00 | 0.04 | 0.00 | 85 | 1016.7 |
| 20260831153334 | 58 | 40 | 0.0 | 0.0 | 0.00 | 0.04 | 0.00 | 87 | 1016.7 |
| 20260831153100 | 57 | 39 | 0.0 | 6.0 | 0.00 | 0.01 | 0.00 | 87 | 1016.0 |
| 20260831152837 | 58 | 32 | 0.0 | 6.0 | 0.00 | 0.04 | 0.00 | 88 | 1016.6 |
| 20260831152333 | 57 | 32 | 1.0 | 8.0 | 0.00 | 0.04 | 0.00 | 88 | 1016.6 |
| 20260831151839 | 57 | 25 | 1.0 | 8.0 | 0.00 | 0.04 | 0.00 | 87 | 1016.6 |
| 20260831151543 | 57 | 37 | 5.0 | 8.0 | 0.00 | 0.01 | 0.00 | 87 | 1015.9 |
| 20260831151325 | 58 | 27 | 3.0 | 6.0 | 0.00 | 0.04 | 0.00 | 87 | 1016.6 |
| 20260831150820 | 58 | 46 | 1.0 | 3.0 | 0.00 | 0.04 | 0.00 | 87 | 1016.6 |
| 20260831150348 | 58 | 34 | 0.0 | 0.0 | 0.00 | 0.04 | 0.00 | 87 | 1016.6 |
| 20260831150011 | 57 | 34 | 0.0 | 0.0 | 0.00 | 0.01 | 0.00 | 86 | 1016.0 |
| 20260831145831 | 57 | 31 | 0.0 | 0.0 | 0.00 | 0.04 | 0.00 | 86 | 1016.6 |
| 20260831145355 | 57 | 44 | 0.0 | 0.0 | 0.00 | 0.04 | 0.00 | 88 | 1016.6 |
| 20260831144819 | 55 | 82 | 0.0 | 0.0 | 0.00 | 0.04 | 0.00 | 90 | 1016.5 |
| 20260831144614 | 54 | 82 | 0.0 | 0.0 | 0.00 | 0.01 | 0.00 | 90 | 1016.0 |
| 20260831144334 | 55 | 83 | 0.0 | 0.0 | 0.00 | 0.04 | 0.00 | 90 | 1016.7 |
| 20260831143842 | 54 | 96 | 0.0 | 0.0 | 0.00 | 0.04 | 0.00 | 90 | 1016.6 |
| 20260831143337 | 54 | 89 | 0.0 | 0.0 | 0.00 | 0.04 | 0.00 | 90 | 1016.6 |
| 20260831143102 | 54 | 91 | 0.0 | 0.0 | 0.00 | 0.01 | 0.00 | 90 | 1015.9 |
| 20260831142819 | 54 | 86 | 0.0 | 0.0 | 0.00 | 0.04 | 0.00 | 90 | 1016.6 |
| 20260831142328 | 54 | 101 | 0.0 | 0.0 | 0.00 | 0.04 | 0.00 | 90 | 1016.5 |
| 20260831141828 | 53 | 88 | 0.0 | 0.0 | 0.00 | 0.04 | 0.00 | 90 | 1016.5 |
| 20260831141611 | 53 | 87 | 0.0 | 0.0 | 0.00 | 0.01 | 0.00 | 90 | 1015.7 |
| 20260831141323 | 53 | 72 | 0.0 | 0.0 | 0.00 | 0.04 | 0.00 | 90 | 1016.4 |
| 20260831140825 | 53 | 47 | 0.0 | 0.0 | 0.00 | 0.04 | 0.00 | 90 | 1016.4 |
| 20260831140100 | 53 | 71 | 0.0 | 0.0 | 0.00 | 0.01 | 0.00 | 91 | 1015.7 |
| 20260831135858 | 53 | 58 | 0.0 | 0.0 | 0.00 | 0.04 | 0.00 | 91 | 1016.4 |
| 20260831135335 | 53 | 68 | 0.0 | 0.0 | 0.00 | 0.04 | 0.00 | 90 | 1016.4 |
| 20260831134821 | 53 | 77 | 0.0 | 0.0 | 0.00 | 0.04 | 0.00 | 90 | 1016.3 |